• Join FlightAware (Why Join?)
  • Login
  • US Flag GB Flag 
07:37 EST


 

Airport Tracker/Info


-or-


 

Live Flight TrackerFlight Track Log ✈ DAL268 ✈ 17-May-2013 ✈ KATL - KJFK

Flight Track Log - Related Links

Times and Time Zones

All times are in EDT time to prevent confusion due to time zone crossing. See the DAL268 flight status page for this flight to view local times or setup timezone preferences in your user account.

Time Position Orientation Groundspeed Altitude Reporting Facility
EDT Latitude Longitude Course Direction KTS MPH feet Rate Location/Type
18:19 33.6333 -84.4667 64° Northeast 185 213 2,000  Level Atlanta TRACON
18:20 33.6000 -84.5333 239° Southwest 242 278 3,400 2,280 Climbing Atlanta TRACON
18:21 33.5500 -84.5833 220° Southwest 263 303 6,600 2,700 Climbing Atlanta TRACON
18:22 33.8653 -84.1285 101° East  Level Estimated
18:22 33.5000 -84.5833 180° South 260 299 8,600  Level Atlanta TRACON
18:23 33.8072 -84.0123 121° Southeast  Level FlightAware Approximate
18:24 33.7489 -83.8963 121° Southeast  Level FlightAware Approximate
18:24 33.4575 -84.4122 107° East 292 336 11,300  Level Atlanta Center
18:25 33.8264 -83.7980 64° Northeast  Level Estimated
18:25 33.4600 -84.2778 89° East 355 409 12,600  Level Atlanta Center
18:27 33.5647 -84.0214 64° Northeast 408 470 17,100 1,980 Climbing Atlanta Center
18:28 33.6147 -83.8842 66° East 424 488 18,700 1,620 Climbing Atlanta Center
18:30 33.6828 -83.5869 75° East 455 524 22,100 1,500 Climbing Atlanta Center
18:31 33.7386 -83.4392 66° East 465 535 23,200 900 Climbing Atlanta Center
18:32 33.7564 -83.2792 82° East 472 543 24,000 840 Climbing Atlanta Center
18:33 33.7700 -83.1167 84° East 483 556 24,900 1,380 Climbing Atlanta Center
18:34 33.7853 -82.9567 83° East 483 556 26,800 1,740 Climbing Atlanta Center
18:35 33.8361 -82.8108 67° East 465 535 28,400 1,380 Climbing Atlanta Center
18:36 33.8994 -82.6747 61° Northeast 465 535 29,600 1,140 Climbing Atlanta Center
18:37 33.9522 -82.5539 62° Northeast 465 535 30,700 960 Climbing Atlanta Center
18:38 34.0153 -82.4172 61° Northeast 460 529 31,600 780 Climbing Atlanta Center
18:39 34.0781 -82.2831 61° Northeast 460 529 32,300 600 Climbing Atlanta Center
18:40 34.1367 -82.1489 62° Northeast 460 529 32,900 300 Climbing Atlanta Center
18:41 34.1969 -82.0144 62° Northeast 460 529 33,000  Climbing Atlanta Center
18:42 34.2553 -81.8800 62° Northeast 455 524 33,000  Level Atlanta Center
18:43 34.3156 -81.7450 62° Northeast 455 524 33,000  Level Atlanta Center
18:44 34.3733 -81.6078 63° Northeast 455 524 33,000  Level Atlanta Center
18:45 34.4333 -81.4750 61° Northeast 455 524 33,000  Level Atlanta Center
18:46 34.4908 -81.3372 63° Northeast 455 524 33,000  Level Atlanta Center
18:47 34.5544 -81.1914 62° Northeast 449 517 33,000  Level Atlanta Center
18:48 34.6117 -81.0531 63° Northeast 449 517 33,000  Level Atlanta Center
18:49 34.6686 -80.9147 63° Northeast 454 522 33,000  Level Atlanta Center
18:50 34.7275 -80.7761 63° Northeast 451 519 33,000  Level Atlanta Center
18:51 34.7864 -80.6372 63° Northeast 457 526 33,000  Level Atlanta Center
18:52 34.8372 -80.5111 64° Northeast 457 526 33,000  Level Atlanta Center
18:53 34.8956 -80.3719 63° Northeast 457 526 33,000  Level Atlanta Center
18:55 35.0022 -80.1156 63° Northeast 459 528 33,000  Level Washington Center
18:56 35.0567 -79.9942 61° Northeast 459 528 33,000  Level Washington Center
18:57 35.1142 -79.8525 64° Northeast 459 528 33,000  Level Washington Center
18:58 35.1731 -79.7186 62° Northeast 459 528 33,000  Level Washington Center
18:59 35.2300 -79.5817 63° Northeast 459 528 33,000  Level Washington Center
19:00 35.2867 -79.4444 63° Northeast 453 521 33,000  Level Washington Center
19:01 35.3519 -79.2922 62° Northeast 448 516 33,000  Level Washington Center
19:02 35.4083 -79.1522 64° Northeast 448 516 33,000  Level Washington Center
19:03 35.4558 -79.0292 65° Northeast 448 516 33,000  Level Washington Center
19:04 35.5139 -78.8889 63° Northeast 448 516 33,000  Level Washington Center
19:05 35.5678 -78.7456 65° Northeast 448 516 33,000  Level Washington Center
19:06 35.6364 -78.5975 60° Northeast 457 526 33,000  Level Washington Center
19:07 35.6900 -78.4511 66° East 462 532 33,000  Level Washington Center
19:08 35.7433 -78.3125 65° Northeast 456 525 33,000  Level Washington Center
19:09 35.7986 -78.1708 64° Northeast 456 525 33,000  Level Washington Center
19:10 35.8539 -78.0292 64° Northeast 456 525 33,000  Level Washington Center
19:11 35.9086 -77.8872 65° Northeast 456 525 33,000  Level Washington Center
19:12 35.9656 -77.7453 64° Northeast 456 525 33,000  Level Washington Center
19:13 36.0347 -77.6161 56° Northeast 450 518 33,000  Level Washington Center
19:14 36.1222 -77.4975 48° Northeast 460 529 33,000  Level Washington Center
19:15 36.2114 -77.3992 42° Northeast 445 512 33,000  Level Washington Center
19:16 36.3086 -77.3036 38° Northeast 439 505 33,000  Level Washington Center
19:17 36.3975 -77.2125 40° Northeast 444 511 33,000  Level Washington Center
19:18 36.4947 -77.1139 39° Northeast 450 518 33,000  Level Washington Center
19:19 36.5919 -77.0094 41° Northeast 455 524 33,000  Level Washington Center
19:20 36.6892 -76.9103 39° Northeast 450 518 33,000  Level Washington Center
19:21 36.7861 -76.8083 40° Northeast 455 524 33,000  Level Washington Center
19:22 36.8831 -76.7058 40° Northeast 455 524 33,000  Level Washington Center
19:23 36.9800 -76.6058 39° Northeast 455 524 33,000  Level Washington Center
19:24 37.0767 -76.5031 40° Northeast 455 524 33,000  Level Washington Center
19:25 37.1756 -76.3972 40° Northeast 455 524 33,000  Level Washington Center
19:26 37.2806 -76.2889 39° Northeast 455 524 33,000  Level Washington Center
19:27 37.3792 -76.1850 40° Northeast 449 517 33,000  Level Washington Center
19:28 37.4775 -76.0889 38° Northeast 449 517 33,000  Level Washington Center
19:29 37.5761 -75.9850 40° Northeast 449 517 33,000  Level Washington Center
19:30 37.6703 -75.8831 41° Northeast 454 522 33,000  Level Washington Center
19:31 37.7664 -75.7783 41° Northeast 454 522 33,000  Level Washington Center
19:32 37.8644 -75.6733 40° Northeast 454 522 33,000  Level Washington Center
19:33 37.9644 -75.5706 39° Northeast 454 522 33,000 -60 Level Washington Center
19:34 38.0625 -75.4678 40° Northeast 454 522 32,900  Descending Washington Center
19:35 38.1708 -75.3964 27° Northeast 449 517 33,000  Climbing Washington Center
19:36 38.2833 -75.3325 24° Northeast 438 504 32,900  Descending Washington Center
19:37 38.3792 -75.2606 30° Northeast 438 504 33,000  Climbing Washington Center
19:38 38.4894 -75.1911 26° Northeast 433 498 33,000  Level Washington Center
19:39 38.6017 -75.1214 26° Northeast 433 498 33,000  Level Washington Center
19:40 38.7097 -75.0517 27° Northeast 433 498 33,000  Level Washington Center
19:41 38.8136 -74.9708 31° Northeast 433 498 33,000  Level Washington Center
19:42 38.9175 -74.8819 34° Northeast 438 504 33,000 -360 Level Washington Center
19:43 39.0147 -74.7903 36° Northeast 438 504 32,300 -1,440 Descending Washington Center
19:44 39.1183 -74.7008 34° Northeast 438 504 30,100 -2,580 Descending Washington Center
19:45 39.2344 -74.5931 36° Northeast 444 511 27,100 -2,940 Descending New York Center
19:46 39.3289 -74.5122 33° Northeast 460 529 24,200 -2,580 Descending New York Center
19:47 39.4297 -74.4208 35° Northeast 455 524 21,900 -2,460 Descending New York Center
19:48 39.5242 -74.3289 37° Northeast 440 506 19,400 -1,980 Descending New York Center
19:49 39.6167 -74.2392 37° Northeast 423 487 18,000 -1,080 Descending New York Center
19:50 39.7133 -74.1333 40° Northeast 411 473 17,300 -1,620 Descending New York Center
19:51 39.7953 -74.0428 40° Northeast 400 460 14,900 -2,400 Descending New York Center
19:52 39.8808 -73.9628 36° Northeast 383 441 12,600 -1,860 Descending New York Center
19:53 39.9572 -73.9094 28° Northeast 359 413 11,200 -840 Descending New York Center
19:54 40.0358 -73.8561 27° Northeast 327 376 11,000 -600 Descending New York Center
19:55 40.1161 -73.8136 22° Northeast 284 327 10,100 -1,320 Descending New York Center
19:56 40.1667 -73.8000 12° North 271 312 8,900 -1,620 Descending New York TRACON
19:57 40.2500 -73.8000 360° North 264 304 7,500 -960 Descending New York TRACON
19:58 40.3000 -73.7667 27° Northeast 277 319 7,000 -300 Descending New York TRACON
19:59 40.3500 -73.6833 52° Northeast 276 318 7,000  Level New York TRACON
20:00 40.4000 -73.6167 45° Northeast 265 305 7,000  Level New York TRACON
20:01 40.4667 -73.5667 30° Northeast 265 305 7,000 -120 Level New York TRACON
20:02 40.5333 -73.5167 30° Northeast 269 310 6,800 -900 Descending New York TRACON
20:03 40.5833 -73.4667 37° Northeast 264 304 5,400 -900 Descending New York TRACON
20:04 40.6500 -73.4167 30° Northeast 261 300 5,000 -540 Descending New York TRACON
20:05 40.7167 -73.4000 11° North 266 306 4,400 -540 Descending New York TRACON
20:06 40.7500 -73.4833 298° West 261 300 4,000 -300 Descending New York TRACON
20:07 40.7833 -73.5667 298° West 260 299 3,900 -120 Descending New York TRACON